Weather History for KHAI - December, 2013

Change the Weather History Date:

Monday, December 9, 2013

  Actual Average (KAZO) Record (KAZO)
Temperature  
Mean Temperature 22 °F 31 °F  
Max Temperature 28 °F 37 °F 68 °F (1966)
Min Temperature 17 °F 25 °F 1 °F (2002)
Degree Days  
Heating Degree Days 42 34  
Month to date heating degree days 295  
Since 1 July heating degree days 1622  
Cooling Degree Days 0 0  
Month to date cooling degree days 0  
Year to date cooling degree days 675  
Moisture  
Dew Point 18 °F    
Average Humidity 78    
Maximum Humidity 94    
Minimum Humidity 63    
Precipitation  
Precipitation 0.00 in 0.07 in 0.44 in (2008)
Month to date precipitation 0.71  
Year to date precipitation 34.47  
Sea Level Pressure  
Sea Level Pressure 30.02 in    
Wind  
Wind Speed 9 mph (WSW)    
Max Wind Speed 16 mph    
Max Gust Speed 25 mph    
Visibility 7 miles    
Events Snow    
T = Trace of Precipitation, MM = Missing Value Source: NWS Daily Summary

Daily Weather History Graph

Daily Weather History Graph

Search for Another Location

Airport or City:

Trip Planner

Search our weather history database for the weather conditions in past years. The results will help you decide how hot, cold, wet, or windy it might be!

Date:

Astronomy

Dec. 09, 2013 Rise Set
Actual Time 7:58 AM EST 5:10 PM EST
Civil Twilight 7:27 AM EST 5:42 PM EST
Nautical Twilight 6:52 AM EST 6:17 PM EST
Astronomical Twilight 6:18 AM EST 6:51 PM EST
Moon 12:45 PM EST (12/9) 12:04 AM EST (12/9)
Length of Visible Light 10h 15m
Length of Day
9h 12m
Waxing Crescent, 51% of the Moon is Illuminated
Dec 9
Waxing Crescent
Dec 17
Full
Dec 25
Last Quarter
Jan 1
New
Jan 7
First Quarter

Hourly Weather History & Observations

Time (EST) Temp. Windchill Dew Point Humidity Pressure Visibility Wind Dir Wind Speed Gust Speed Precip Events Conditions
12:14 AM 26.6 °F 22.6 °F 24.8 °F 93% 29.94 in 2.5 mi South 3.5 mph - N/A Snow Light Snow
12:35 AM 26.6 °F 20.0 °F 25.0 °F 94% 29.92 in 4.0 mi South 5.8 mph - N/A Snow Light Snow
12:55 AM 26.6 °F 21.2 °F 24.8 °F 93% 29.91 in 4.0 mi South 4.6 mph - N/A   Overcast
1:15 AM 26.8 °F 20.2 °F 25.0 °F 93% 29.90 in 7.0 mi South 5.8 mph - N/A   Overcast
1:35 AM 26.6 °F 19.1 °F 24.8 °F 93% 29.90 in 5.0 mi SSW 6.9 mph - N/A   Overcast
1:55 AM 27.0 °F 19.5 °F 25.2 °F 93% 29.89 in 7.0 mi SSW 6.9 mph - N/A   Overcast
2:15 AM 27.5 °F 19.3 °F 25.5 °F 92% 29.89 in 7.0 mi SSW 8.1 mph - N/A   Overcast
2:35 AM 27.5 °F 21.1 °F 25.5 °F 92% 29.90 in 7.0 mi SW 5.8 mph - N/A   Overcast
2:54 AM 28.0 °F 20.8 °F 25.5 °F 90% 29.90 in 7.0 mi WSW 6.9 mph - N/A   Overcast
3:15 AM 28.2 °F 19.5 °F 25.2 °F 88% 29.90 in 7.0 mi WSW 9.2 mph - N/A   Overcast
3:34 AM 28.4 °F 19.1 °F 24.8 °F 86% 29.91 in 10.0 mi West 10.4 mph 17.3 mph N/A   Overcast
3:55 AM 28.2 °F 19.5 °F 24.4 °F 86% 29.90 in 10.0 mi West 9.2 mph - N/A   Overcast
4:15 AM 28.2 °F 20.2 °F 24.3 °F 85% 29.90 in 10.0 mi WSW 8.1 mph - N/A   Overcast
4:34 AM 28.2 °F 18.9 °F 24.1 °F 84% 29.90 in 10.0 mi SW 10.4 mph - N/A   Overcast
4:55 AM 28.0 °F 18.6 °F 24.3 °F 86% 29.90 in 7.0 mi SW 10.4 mph - N/A   Overcast
5:14 AM 27.9 °F 19.8 °F 24.3 °F 86% 29.90 in 5.0 mi WSW 8.1 mph - N/A   Overcast
5:35 AM 27.5 °F 19.3 °F 24.4 °F 88% 29.90 in 5.0 mi WSW 8.1 mph - N/A   Overcast
5:55 AM 27.5 °F 18.0 °F 24.4 °F 88% 29.91 in 5.0 mi SW 10.4 mph 18.4 mph N/A   Overcast
6:14 AM 27.1 °F 16.9 °F 23.9 °F 88% 29.92 in 5.0 mi WSW 11.5 mph 17.3 mph N/A   Overcast
6:35 AM 27.0 °F 17.3 °F 23.9 °F 88% 29.92 in 5.0 mi SW 10.4 mph 21.9 mph N/A   Overcast
6:54 AM 26.6 °F 16.2 °F 23.9 °F 90% 29.93 in 5.0 mi SW 11.5 mph - N/A   Overcast
7:15 AM 26.6 °F 16.2 °F 23.5 °F 88% 29.93 in 7.0 mi SW 11.5 mph 17.3 mph N/A   Overcast
7:35 AM 26.4 °F 16.6 °F 23.4 °F 88% 29.94 in 7.0 mi WSW 10.4 mph 19.6 mph N/A   Overcast
7:54 AM 26.2 °F 16.4 °F 23.0 °F 88% 29.95 in 7.0 mi WSW 10.4 mph 18.4 mph N/A   Overcast
8:15 AM 26.2 °F 15.8 °F 22.8 °F 87% 29.96 in 10.0 mi WSW 11.5 mph 17.3 mph N/A   Overcast
8:35 AM 26.1 °F 16.2 °F 22.5 °F 86% 29.96 in 7.0 mi WSW 10.4 mph - N/A   Overcast
8:54 AM 26.1 °F 17.6 °F 22.1 °F 85% 29.97 in 7.0 mi WSW 8.1 mph 16.1 mph N/A Snow Light Snow
9:15 AM 26.1 °F 15.0 °F 21.9 °F 84% 29.99 in 5.0 mi WSW 12.7 mph 16.1 mph N/A Snow Light Snow
9:35 AM 25.7 °F 15.7 °F 21.6 °F 84% 30.01 in 4.0 mi WSW 10.4 mph 17.3 mph N/A   Haze
9:54 AM 25.7 °F 14.0 °F 21.6 °F 84% 30.01 in 2.0 mi SW 13.8 mph - N/A Snow Light Snow
10:15 AM 25.7 °F 18.0 °F 21.9 °F 86% 30.03 in 1.5 mi SW 6.9 mph - N/A Snow Light Snow
10:35 AM 25.7 °F 15.1 °F 21.9 °F 86% 30.03 in 1.2 mi WSW 11.5 mph 17.3 mph N/A Snow Light Snow
10:54 AM 25.7 °F 15.7 °F 21.6 °F 84% 30.02 in 1.5 mi WSW 10.4 mph 17.3 mph N/A Snow Light Snow
11:15 AM 25.7 °F 15.7 °F 21.4 °F 84% 30.03 in 2.0 mi WSW 10.4 mph - N/A Snow Light Snow
11:34 AM 25.7 °F 17.1 °F 21.2 °F 83% 30.02 in 1.8 mi SW 8.1 mph 16.1 mph N/A Snow Light Snow
11:55 AM - - - N/A% - - North - - N/A   Unknown
12:15 PM 27.9 °F 19.1 °F 21.4 °F 77% 30.01 in 1.2 mi SW 9.2 mph - N/A Snow Light Snow
12:35 PM 25.5 °F 14.3 °F 19.9 °F 79% 30.02 in 1.0 mi WSW 12.7 mph 17.3 mph N/A Snow Light Snow
12:55 PM 25.5 °F 16.2 °F 20.5 °F 81% 30.03 in 0.8 mi WSW 9.2 mph 16.1 mph N/A Snow Light Snow
1:14 PM 25.5 °F 14.3 °F 20.3 °F 81% 30.04 in 1.0 mi WSW 12.7 mph - N/A Snow Light Snow
1:35 PM 25.2 °F 14.4 °F 19.4 °F 79% 30.05 in 1.2 mi SW 11.5 mph 21.9 mph N/A Snow Light Snow
1:55 PM 25.0 °F 13.1 °F 18.7 °F 77% 30.06 in 2.0 mi WSW 13.8 mph 25.3 mph N/A Snow Light Snow
2:14 PM 24.6 °F 14.4 °F 17.6 °F 75% 30.07 in 2.0 mi SW 10.4 mph 23.0 mph N/A Snow Light Snow
2:35 PM 24.3 °F 12.7 °F 15.4 °F 69% 30.06 in 5.0 mi WSW 12.7 mph 21.9 mph N/A Snow Light Snow
2:55 PM 23.4 °F 10.1 °F 14.2 °F 68% 30.07 in 10.0 mi WSW 16.1 mph 21.9 mph N/A   Mostly Cloudy
3:14 PM 23.0 °F 11.1 °F 14.0 °F 68% 30.07 in 10.0 mi SW 12.7 mph 18.4 mph N/A   Mostly Cloudy
3:35 PM 22.8 °F 9.9 °F 13.3 °F 67% 30.07 in 10.0 mi WSW 15.0 mph 21.9 mph N/A   Mostly Cloudy
3:55 PM 22.6 °F 10.7 °F 13.1 °F 67% 30.09 in 10.0 mi WSW 12.7 mph 20.7 mph N/A   Mostly Cloudy
4:15 PM 22.5 °F 11.1 °F 13.1 °F 67% 30.10 in 10.0 mi WSW 11.5 mph 19.6 mph N/A   Mostly Cloudy
4:35 PM 22.1 °F 10.6 °F 13.1 °F 68% 30.11 in 10.0 mi SW 11.5 mph 20.7 mph N/A   Overcast
4:55 PM 21.7 °F 10.2 °F 12.4 °F 67% 30.10 in 10.0 mi WSW 11.5 mph 20.7 mph N/A   Mostly Cloudy
5:15 PM 21.2 °F 10.1 °F 11.8 °F 67% 30.10 in 10.0 mi WSW 10.4 mph 17.3 mph N/A   Scattered Clouds
5:35 PM 21.0 °F 12.4 °F 11.8 °F 68% 30.10 in 10.0 mi WSW 6.9 mph - N/A   Clear
5:55 PM 20.8 °F 11.2 °F 11.3 °F 67% 30.10 in 10.0 mi WSW 8.1 mph - N/A   Clear
6:15 PM 21.0 °F 9.3 °F 10.6 °F 64% 30.10 in 10.0 mi WSW 11.5 mph 18.4 mph N/A   Clear
6:35 PM 21.0 °F 11.4 °F 10.2 °F 63% 30.10 in 10.0 mi WSW 8.1 mph - N/A   Scattered Clouds
6:55 PM 20.8 °F 10.4 °F 10.4 °F 64% 30.11 in 10.0 mi WSW 9.2 mph 18.4 mph N/A   Scattered Clouds
7:15 PM 20.7 °F 10.2 °F 10.4 °F 65% 30.12 in 10.0 mi WSW 9.2 mph - N/A   Scattered Clouds
7:35 PM 20.8 °F 12.1 °F 11.1 °F 66% 30.13 in 10.0 mi WSW 6.9 mph - N/A   Mostly Cloudy
7:55 PM 20.8 °F 9.7 °F 11.3 °F 67% 30.13 in 10.0 mi WSW 10.4 mph - N/A   Mostly Cloudy
8:15 PM 20.3 °F 11.5 °F 11.7 °F 69% 30.14 in 7.0 mi WSW 6.9 mph - N/A Snow Light Snow
8:34 PM 20.3 °F 8.3 °F 11.8 °F 70% 30.14 in 10.0 mi West 11.5 mph - N/A Snow Light Snow
8:55 PM 20.3 °F 7.7 °F 11.1 °F 68% 30.13 in 10.0 mi West 12.7 mph 17.3 mph N/A   Mostly Cloudy
9:15 PM 20.1 °F 7.5 °F 10.4 °F 66% 30.13 in 10.0 mi West 12.7 mph 17.3 mph N/A   Mostly Cloudy
9:35 PM 19.9 °F 7.9 °F 9.5 °F 64% 30.13 in 10.0 mi West 11.5 mph 18.4 mph N/A   Scattered Clouds
9:55 PM 19.6 °F 6.2 °F 9.3 °F 64% 30.14 in 10.0 mi West 13.8 mph 20.7 mph N/A   Mostly Cloudy
10:15 PM 19.2 °F 4.7 °F 9.1 °F 65% 30.13 in 10.0 mi West 16.1 mph 21.9 mph N/A   Scattered Clouds
10:35 PM 18.5 °F 8.4 °F 8.6 °F 65% 30.13 in 10.0 mi West 8.1 mph - N/A   Scattered Clouds
10:54 PM 18.3 °F 5.9 °F 8.2 °F 65% 30.12 in 10.0 mi West 11.5 mph - N/A   Scattered Clouds
11:15 PM 18.0 °F 4.8 °F 8.4 °F 66% 30.12 in 10.0 mi West 12.7 mph 18.4 mph N/A   Scattered Clouds
11:35 PM 17.4 °F 5.4 °F 8.6 °F 68% 30.13 in 10.0 mi West 10.4 mph - N/A   Clear
11:54 PM 17.2 °F 4.5 °F 8.6 °F 69% 30.13 in 10.0 mi West 11.5 mph 16.1 mph N/A   Scattered Clouds